Location: Assche-ter-Heiden
(50.9174°N, 4.1574°E)
Time: 18:44:45
(UTC+00:00)

STARLINK-37 - Pass Details

Date: 20 January 2020
Orbit: 529 x 530 km, 53.0° (Epoch: 16 February)

Event Time Altitude Azimuth Distance (km) Brightness Sun altitude
Exits shadow 06:23:25 - 232° (SW) 2,613 6.7 -11.1°
Reaches altitude 10° 06:25:32 10° 228° (SW) 1,773 5.9 -10.8°
Maximum altitude 06:29:27 53° 151° (SSE) 654 4.3 -10.2°
Drops below altitude 10° 06:33:19 11° 74° (ENE) 1,752 7.1 -9.7°
Sets 06:35:39 0° 70° (ENE) 2,676 8.0 -9.3°
